[[{"header":{"parameterUnit":"m.s-1","parameterCategory":1,"la1":30.2991,"la2":30.254,"lo1":-89.0895,"lo2":-89.0444,"dy":0.0017,"dx":0.0017,"nx":28,"ny":28,"refTime":"2024-07-01T21:00:00:Z","depth":0,"parameterNumber":2,"parameterNumberName":"U-component_of_WINDS"},"data":[0,0,0,0,0,0,0,0,0,0,0,0,0,0,0,0,0,0,0,0,0,0,0,0,0,0,0,0,0,0,0,0,0,0,0,0,0,0,0,0,0,0,0,0,0,0,0,0,0,0,0,0,0,0,0,0,0,0,1.0696,1.0695,0,1.0637,1.0636,1.0636,1.0528,1.0525,1.0523,1.0521,1.0464,1.0464,1.0465,0,0,0,0,0,0,0,0,0,0,0,0,0,1.0717,1.0717,1.0696,1.0695,1.0694,1.0637,1.0636,1.0635,1.0528,1.0525,1.0523,1.052,1.0464,1.0464,1.0465,0,0,0,0,0,0,0,0,0,0,0,0,0,1.0688,1.0717,1.0696,1.0634,1.0627,1.0637,1.0636,1.0635,1.0528,1.0525,1.0522,1.0519,1.0464,1.0464,1.0465,1.0531,0,0,1.0467,1.0467,0,0,0,0,0,0,0,0,1.069,1.0687,1.0644,1.0638,1.0631,1.0586,1.0622,1.0601,1.0529,1.0566,1.0521,1.0518,1.0507,1.0504,1.05,1.0529,1.0526,1.0467,1.0467,1.0467,1.0468,0,0,0,0,0,0,0,1.0692,1.0689,1.0673,1.0643,1.0635,1.0609,1.0602,1.0618,1.0555,1.0563,1.0555,1.0549,1.0503,1.05,1.0498,1.0525,1.0467,1.0467,1.0468,1.0468,1.0604,1.0607,0,0,0,0,0,0,1.0703,1.0692,1.0674,1.0671,1.0653,1.0611,1.0603,1.0604,1.0555,1.0544,1.0552,1.0544,1.05,1.0497,1.0496,1.0569,1.0467,1.0468,1.0468,1.0601,1.0605,1.0608,0,0,0,0,0,0,1.0703,1.0702,1.0677,1.0679,1.0674,1.0614,1.0616,1.0604,1.0601,1.0546,1.0535,1.056,1.0498,1.0495,1.0523,1.0565,1.0468,1.0469,1.0597,1.0602,1.0606,1.0717,0,0,0,0,0,0,1.0704,1.0703,1.0727,1.068,1.0674,1.0705,1.0619,1.0606,1.0602,1.0591,1.0551,1.0541,1.0495,1.0522,1.0523,1.0565,1.0469,1.0593,1.0599,1.0605,1.071,1.0725,1.0739,0,0,0,0,0,1.0706,1.0762,1.0729,1.0728,1.0703,1.0707,1.0704,1.0649,1.0606,1.063,1.0595,1.0542,1.0561,1.0526,1.0526,1.0568,1.059,1.0597,1.0604,1.0703,1.0722,1.0739,0,0,0,0,0,0,1.0817,1.0754,1.0718,1.076,1.074,1.0689,1.0718,1.0672,1.0664,1.0655,1.0588,1.058,1.0616,1.0595,1.0558,1.0629,1.0567,1.0575,1.0642,1.066,1.0674,1.0678,1.047,0,0,0,0,0,1.0846,1.0854,1.0799,1.0842,1.0834,1.0778,1.0778,1.0737,1.0714,1.0705,1.0672,1.0652,1.0653,1.0655,1.0653,1.0706,1.0695,1.0735,1.075,1.0762,1.0769,1.0795,1.0811,1.0632,1.0632,1.0632,0,0,1.0907,1.0874,1.0883,1.0864,1.0843,1.0853,1.0771,1.0786,1.0793,1.0708,1.0731,1.0707,1.068,1.072,1.0736,1.0704,1.0817,1.0771,1.0782,1.0782,1.0804,1.0821,1.0836,1.0637,1.0636,1.0635,0,0,1.1022,1.0999,1.1031,1.1011,1.0981,1.0943,1.0951,1.0908,1.0887,1.091,1.0846,1.0854,1.0857,1.084,1.0832,1.0941,1.0892,1.0943,1.1019,1.1044,1.1058,1.1071,1.1108,1.1123,1.095,1.095,1.0951,0,1.1102,1.1114,1.1053,1.1071,1.1065,1.0987,1.1019,1.1004,1.0975,1.0972,1.0936,1.0938,1.0914,1.0949,1.0976,1.0972,1.0979,1.0946,1.1061,1.1073,1.1083,1.1119,1.1133,1.0957,1.0956,1.0955,1.0955,0,1.1212,1.1222,1.1252,1.1224,1.1221,1.1247,1.119,1.1194,1.1154,1.1121,1.1145,1.1114,1.1104,1.1109,1.1071,1.1138,1.1119,1.1073,1.1009,1.1107,1.1139,1.1153,1.0965,1.0963,1.0961,1.096,0,0,1.1396,1.1334,1.1346,1.1332,1.1293,1.1299,1.1321,1.131,1.1315,1.1298,1.1314,1.1318,1.1275,1.1266,1.1225,1.1248,1.1334,1.1198,1.1197,1.1224,1.1406,1.144,1.1457,1.1302,1.1304,1.1306,1.1408,0,1.1502,1.1535,1.1481,1.1526,1.1534,1.146,1.1479,1.1457,1.1426,1.1429,1.1395,1.1399,1.1342,1.1336,1.1355,1.132,1.137,1.1312,1.1317,1.1317,1.1325,1.1474,1.151,1.1607,1.142,1.1422,1.1424,0,1.163,1.1618,1.1664,1.1621,1.1622,1.164,1.1625,1.1628,1.1602,1.1578,1.1568,1.1519,1.1537,1.1476,1.15,1.1462,1.146,1.1444,1.1446,1.1444,1.1376,1.1475,1.1637,1.1652,1.1443,1.1442,1.144,0,1.1758,1.1754,1.178,1.177,1.1721,1.1735,1.1715,1.1686,1.1682,1.167,1.1667,1.1658,1.1652,1.1646,1.1596,1.1556,1.1626,1.1561,1.1607,1.1608,1.1624,1.1624,1.1788,1.1626,1.1625,1.1625,1.1625,0,1.1882,1.1913,1.1836,1.1853,1.1885,1.1823,1.1857,1.183,1.1804,1.1814,1.175,1.1761,1.1694,1.1698,1.1659,1.1685,1.1683,1.1664,1.1653,1.1669,1.1672,1.1667,1.1658,1.1629,1.1628,1.1627,1.1627,0,1.203,1.198,1.2003,1.1954,1.1943,1.1969,1.1927,1.194,1.1905,1.1918,1.1918,1.1863,1.1864,1.1814,1.1805,1.1778,1.1821,1.1798,1.1829,1.1822,1.187,1.1866,1.2036,1.2055,1.1882,1.1884,1.1885,0,1.2111,1.2133,1.2086,1.2087,1.207,1.2074,1.207,1.201,1.2009,1.198,1.1997,1.1992,1.1985,1.199,1.195,1.1943,1.1919,1.1979,1.1917,1.1932,1.1918,1.1917,1.1919,1.1992,1.1994,1.1996,1.1997,0,1.2261,1.2235,1.2231,1.2219,1.2215,1.2203,1.2186,1.2192,1.2126,1.2128,1.2127,1.2122,1.2112,1.2109,1.2094,1.2073,1.2025,1.2017,1.2027,1.2043,1.206,1.205,1.1864,1.2013,1.2012,1.2011,1.201,1.2009,1.2377,1.2392,1.2361,1.2359,1.234,1.2326,1.2336,1.2302,1.23,1.2286,1.2252,1.2257,1.223,1.2204,1.2189,1.2192,1.2162,1.2177,1.218,1.2185,1.2193,1.206,1.2189,1.2189,1.2188,1.2188,1.2188,0,1.2522,1.2498,1.2497,1.2475,1.2474,1.2427,1.2407,1.2408,1.2413,1.2392,1.2386,1.2385,1.2381,1.2341,1.2332,1.2343,1.232,1.2342,1.234,1.2336,1.2221,1.2213,1.2361,1.236,1.236,1.236,1.236,1.236,1.2597,1.262,1.2591,1.2604,1.258,1.2584,1.2576,1.2563,1.2545,1.2547,1.2543,1.2516,1.2487,1.2476,1.247,1.2458,1.2457,1.2487,1.2468,1.2361,1.2345,1.2329,1.232,1.2488,1.2488,1.2582,1.2583,1.2584]},{"header":{"parameterUnit":"m.s-1","parameterCategory":1,"la1":30.2991,"la2":30.254,"lo1":-89.0895,"lo2":-89.0444,"dy":0.0017,"dx":0.0017,"nx":28,"ny":28,"refTime":"2024-07-01T21:00:00:Z","depth":0,"parameterNumber":3,"parameterNumberName":"V-component_of_WINDS"},"data":[0,0,0,0,0,0,0,0,0,0,0,0,0,0,0,0,0,0,0,0,0,0,0,0,0,0,0,0,0,0,0,0,0,0,0,0,0,0,0,0,0,0,0,0,0,0,0,0,0,0,0,0,0,0,0,0,0,0,3.3335,3.3336,0,3.3413,3.3414,3.3415,3.3399,3.3398,3.3396,3.3395,3.3471,3.3474,3.3477,0,0,0,0,0,0,0,0,0,0,0,0,0,3.3168,3.3171,3.3335,3.3336,3.3337,3.3413,3.3414,3.3415,3.3399,3.3398,3.3396,3.3394,3.347,3.3474,3.3478,0,0,0,0,0,0,0,0,0,0,0,0,0,3.3243,3.3172,3.3335,3.3338,3.334,3.3412,3.3414,3.3415,3.34,3.3398,3.3396,3.3394,3.3468,3.3473,3.3478,3.3551,0,0,3.3493,3.3496,0,0,0,0,0,0,0,0,3.3238,3.3249,3.3337,3.3338,3.334,3.3394,3.3383,3.3461,3.34,3.3377,3.3395,3.3393,3.3447,3.3453,3.3473,3.3555,3.3558,3.3494,3.3497,3.3499,3.3501,0,0,0,0,0,0,0,3.3233,3.3245,3.3366,3.3338,3.334,3.3335,3.3343,3.3397,3.3422,3.3379,3.3378,3.3387,3.3447,3.3468,3.3474,3.3559,3.3494,3.3498,3.3501,3.3503,3.3703,3.3706,0,0,0,0,0,0,3.3227,3.3241,3.3363,3.3368,3.3283,3.3339,3.3349,3.3379,3.3422,3.3427,3.3389,3.3386,3.346,3.3468,3.3477,3.3564,3.3499,3.3504,3.3507,3.3701,3.3704,3.3707,0,0,0,0,0,0,3.3224,3.3239,3.336,3.3304,3.3319,3.3344,3.3378,3.3381,3.3402,3.343,3.3434,3.3406,3.3459,3.347,3.3533,3.3567,3.3506,3.3511,3.3698,3.3702,3.3705,3.3741,0,0,0,0,0,0,3.3219,3.3237,3.3267,3.3305,3.3323,3.3416,3.3381,3.3384,3.3411,3.3408,3.3447,3.3451,3.3458,3.3525,3.3538,3.3573,3.3514,3.3695,3.37,3.3704,3.3737,3.3745,3.3752,0,0,0,0,0,3.3213,3.3273,3.3268,3.3283,3.336,3.3418,3.3428,3.3436,3.3414,3.3443,3.346,3.345,3.3561,3.3532,3.3546,3.3583,3.3693,3.3699,3.3704,3.3733,3.3743,3.3752,0,0,0,0,0,0,3.3237,3.3278,3.3273,3.3348,3.338,3.3416,3.3452,3.3447,3.3485,3.3481,3.3488,3.3496,3.356,3.3578,3.3545,3.3655,3.3624,3.3632,3.3641,3.3651,3.3659,3.3653,3.3519,0,0,0,0,0,3.3251,3.3296,3.3329,3.3391,3.3408,3.3427,3.3453,3.3457,3.349,3.3503,3.3525,3.3556,3.3598,3.3626,3.3666,3.3739,3.3746,3.3771,3.3778,3.3785,3.3792,3.383,3.3841,3.3724,3.3724,3.3724,0,0,3.328,3.3308,3.3336,3.3397,3.3422,3.3467,3.3439,3.3488,3.3522,3.351,3.3571,3.3588,3.3623,3.3692,3.3723,3.3708,3.3826,3.3791,3.3796,3.38,3.3837,3.3848,3.3858,3.3727,3.3727,3.3726,0,0,3.3356,3.3382,3.3436,3.3462,3.3501,3.3514,3.3527,3.3563,3.3575,3.3636,3.3628,3.3667,3.3739,3.3765,3.3787,3.3871,3.3862,3.3884,3.3924,3.3962,3.3971,3.3979,3.4009,3.4019,3.389,3.3891,3.3891,0,3.3386,3.3456,3.3465,3.3515,3.3541,3.3533,3.3587,3.3612,3.3661,3.3679,3.3662,3.3752,3.3775,3.3848,3.3869,3.3887,3.3901,3.3879,3.3969,3.3978,3.3985,3.4013,3.4025,3.3893,3.3893,3.3892,3.3892,0,3.3492,3.354,3.3579,3.3628,3.3658,3.371,3.3725,3.3754,3.3755,3.3768,3.383,3.3858,3.3903,3.392,3.3921,3.3994,3.3983,3.3968,3.3937,3.3999,3.4025,3.4036,3.3896,3.3895,3.3895,3.3894,0,0,3.3586,3.3638,3.3652,3.3674,3.3716,3.3753,3.3803,3.3848,3.3873,3.3907,3.3949,3.4009,3.3995,3.402,3.4023,3.4057,3.412,3.4037,3.4038,3.4051,3.4201,3.4212,3.4225,3.4115,3.4117,3.4118,3.4198,0,3.3665,3.3757,3.3765,3.3846,3.389,3.3882,3.3926,3.3955,3.3969,3.4007,3.4021,3.4064,3.4042,3.4057,3.409,3.4106,3.415,3.41,3.4152,3.4154,3.4144,3.4239,3.4251,3.4325,3.4208,3.421,3.4211,0,3.3771,3.3809,3.3895,3.3929,3.3948,3.3988,3.4029,3.4066,3.4098,3.4105,3.4133,3.4131,3.4182,3.4149,3.4217,3.4183,3.4204,3.4215,3.4218,3.4223,3.4187,3.4246,3.4348,3.4359,3.4228,3.4226,3.4225,0,3.383,3.3903,3.3963,3.3982,3.4024,3.4052,3.407,3.4101,3.4127,3.4162,3.4179,3.422,3.4242,3.4272,3.4281,3.4256,3.4349,3.4317,3.4355,3.4355,3.4375,3.4374,3.4483,3.439,3.4389,3.4389,3.4389,0,3.3919,3.3971,3.399,3.4028,3.4085,3.4093,3.415,3.4167,3.4194,3.4233,3.4228,3.4264,3.4273,3.4311,3.4318,3.4373,3.4383,3.4389,3.439,3.439,3.4389,3.4404,3.4399,3.4392,3.4392,3.4391,3.439,0,3.3995,3.401,3.4075,3.411,3.412,3.4161,3.4189,3.4224,3.4236,3.4286,3.4298,3.4317,3.4361,3.4372,3.4425,3.4429,3.4494,3.449,3.4483,3.4483,3.4521,3.4517,3.4643,3.4659,3.4556,3.4557,3.4558,0,3.4051,3.4091,3.413,3.4156,3.4176,3.4218,3.4245,3.4254,3.4281,3.4321,3.435,3.4394,3.4429,3.4499,3.4517,3.4556,3.4553,3.4595,3.4559,3.4557,3.4554,3.4551,3.4555,3.4602,3.4603,3.4604,3.4604,0,3.4147,3.4152,3.4192,3.4234,3.4266,3.4299,3.4331,3.4352,3.4365,3.4396,3.4441,3.4469,3.4522,3.4565,3.4604,3.4622,3.4615,3.4615,3.4626,3.4626,3.462,3.4623,3.4502,3.4612,3.4612,3.4611,3.4611,3.461,3.4215,3.425,3.4282,3.4326,3.4351,3.438,3.4414,3.4431,3.447,3.4514,3.4516,3.4565,3.4595,3.4648,3.4667,3.4704,3.4692,3.4708,3.4712,3.4716,3.4719,3.4614,3.4712,3.4711,3.4711,3.4711,3.4711,0,3.4311,3.4331,3.4371,3.4416,3.445,3.4441,3.4475,3.4504,3.4547,3.4576,3.4611,3.4662,3.4703,3.4724,3.4764,3.479,3.4787,3.48,3.4798,3.4802,3.4728,3.4714,3.4801,3.4801,3.4801,3.4801,3.4801,3.4801,3.4365,3.4423,3.4432,3.4502,3.4522,3.4571,3.4591,3.4617,3.464,3.4698,3.4732,3.4746,3.4771,3.4812,3.4849,3.4854,3.4869,3.4883,3.4886,3.4816,3.4807,3.4798,3.4786,3.4886,3.4886,3.4957,3.4958,3.4958]}]]